[[{"header":{"parameterUnit":"m.s-1","parameterCategory":1,"la1":30.2991,"la2":30.254,"lo1":-89.0895,"lo2":-89.0444,"dy":0.0017,"dx":0.0017,"nx":28,"ny":28,"refTime":"2025-05-16T21:00:00:Z","depth":0,"parameterNumber":2,"parameterNumberName":"U-component_of_WINDS"},"data":[0,0,0,0,0,0,0,0,0,0,0,0,0,0,0,0,0,0,0,0,0,0,0,0,0,0,0,0,0,0,0,0,0,0,0,0,0,0,0,0,0,0,0,0,0,0,0,0,0,0,0,0,0,0,0,0,0,0,0.2639,0.264,0,0.2654,0.2655,0.2655,0.2658,0.2657,0.2657,0.2657,0.2673,0.2673,0.2674,0,0,0,0,0,0,0,0,0,0,0,0,0,0.2614,0.2614,0.2639,0.264,0.264,0.2654,0.2655,0.2655,0.2658,0.2657,0.2657,0.2657,0.2673,0.2673,0.2674,0,0,0,0,0,0,0,0,0,0,0,0,0,0.2626,0.2614,0.2639,0.2643,0.2643,0.2654,0.2655,0.2655,0.2658,0.2657,0.2657,0.2657,0.2672,0.2673,0.2674,0.2683,0,0,0.2676,0.2677,0,0,0,0,0,0,0,0,0.2626,0.2627,0.2642,0.2643,0.2643,0.2654,0.2651,0.2664,0.2658,0.2652,0.2657,0.2657,0.2667,0.2668,0.2671,0.2683,0.2684,0.2677,0.2677,0.2677,0.2678,0,0,0,0,0,0,0,0.2625,0.2627,0.2645,0.2642,0.2643,0.2644,0.2646,0.2654,0.266,0.2653,0.2653,0.2655,0.2667,0.267,0.2672,0.2684,0.2676,0.2677,0.2678,0.2678,0.2705,0.2705,0,0,0,0,0,0,0.2623,0.2626,0.2645,0.2646,0.2634,0.2645,0.2646,0.2651,0.266,0.2661,0.2655,0.2655,0.2669,0.2671,0.2672,0.2683,0.2677,0.2678,0.2679,0.2704,0.2705,0.2705,0,0,0,0,0,0,0.2623,0.2625,0.2644,0.2636,0.2638,0.2645,0.265,0.2651,0.2654,0.2662,0.2663,0.2657,0.2669,0.2671,0.268,0.2684,0.2678,0.2679,0.2704,0.2704,0.2705,0.2705,0,0,0,0,0,0,0.2622,0.2625,0.2628,0.2636,0.2639,0.2652,0.265,0.2651,0.2656,0.2656,0.2664,0.2665,0.2669,0.2679,0.2681,0.2685,0.268,0.2704,0.2704,0.2705,0.2705,0.2705,0.2706,0,0,0,0,0,0.2621,0.2627,0.2628,0.263,0.2643,0.2652,0.2654,0.2657,0.2656,0.2659,0.2664,0.2665,0.2683,0.268,0.2682,0.2686,0.2704,0.2704,0.2705,0.2704,0.2705,0.2706,0,0,0,0,0,0,0.2619,0.2628,0.2629,0.2638,0.2644,0.2652,0.2657,0.2658,0.2665,0.2664,0.2669,0.2671,0.268,0.2684,0.268,0.2695,0.2693,0.2694,0.2692,0.2693,0.2694,0.2692,0.268,0,0,0,0,0,0.262,0.2626,0.2634,0.2641,0.2644,0.265,0.2654,0.2656,0.2663,0.2665,0.2671,0.2677,0.2684,0.2689,0.2696,0.2705,0.2707,0.2709,0.271,0.271,0.2711,0.2717,0.2718,0.2707,0.2707,0.2707,0,0,0.2621,0.2627,0.2631,0.2641,0.2646,0.2653,0.2652,0.2659,0.2664,0.2667,0.2676,0.268,0.2687,0.2696,0.2701,0.27,0.2715,0.2711,0.2711,0.2712,0.2717,0.2718,0.2719,0.2707,0.2707,0.2707,0,0,0.2627,0.2632,0.2639,0.2644,0.2652,0.2656,0.2657,0.2665,0.2668,0.2677,0.2679,0.2685,0.2697,0.2703,0.2707,0.2715,0.2717,0.2717,0.2721,0.2726,0.2727,0.2728,0.2731,0.2732,0.2718,0.2718,0.2718,0,0.2628,0.2638,0.2642,0.2649,0.2654,0.2657,0.2664,0.2668,0.2678,0.2681,0.268,0.2695,0.27,0.2711,0.2713,0.2717,0.2719,0.2717,0.2726,0.2727,0.2728,0.2732,0.2733,0.2718,0.2718,0.2718,0.2718,0,0.2639,0.2646,0.2651,0.266,0.2665,0.2672,0.2678,0.2682,0.2684,0.2688,0.2698,0.2704,0.2712,0.2715,0.2717,0.2726,0.2726,0.2726,0.2724,0.2729,0.2733,0.2734,0.2718,0.2718,0.2718,0.2718,0,0,0.2644,0.2656,0.2658,0.2662,0.2671,0.2677,0.2684,0.2692,0.2696,0.2703,0.2709,0.2719,0.2719,0.2724,0.2727,0.2732,0.2739,0.2731,0.2731,0.2732,0.275,0.275,0.2751,0.2739,0.274,0.274,0.2749,0,0.2651,0.2665,0.2669,0.268,0.2687,0.269,0.2696,0.2702,0.2706,0.2713,0.2717,0.2725,0.2724,0.2727,0.2732,0.2737,0.2742,0.2736,0.2746,0.2746,0.2744,0.2753,0.2753,0.2762,0.275,0.2751,0.2751,0,0.2662,0.2669,0.2681,0.2689,0.2692,0.2698,0.2706,0.2712,0.272,0.2722,0.2728,0.273,0.2738,0.2736,0.2747,0.2743,0.2747,0.275,0.2751,0.2752,0.2749,0.2755,0.2765,0.2766,0.2753,0.2753,0.2752,0,0.2665,0.2677,0.2686,0.269,0.27,0.2704,0.2708,0.2715,0.272,0.2727,0.2731,0.2738,0.2743,0.2749,0.2753,0.2751,0.2765,0.2762,0.2767,0.2767,0.277,0.277,0.2781,0.2772,0.2772,0.2772,0.2772,0,0.2673,0.268,0.2688,0.2693,0.2702,0.2706,0.2715,0.2719,0.2725,0.2732,0.2735,0.2741,0.2746,0.2753,0.2757,0.2766,0.2768,0.277,0.2771,0.277,0.277,0.2773,0.2773,0.2772,0.2772,0.2772,0.2772,0,0.2677,0.2683,0.2693,0.2702,0.2704,0.271,0.2718,0.2723,0.2728,0.2736,0.2738,0.2745,0.2753,0.2758,0.2769,0.2771,0.2781,0.2782,0.2779,0.2779,0.2784,0.2784,0.2798,0.28,0.2789,0.2789,0.279,0,0.2682,0.2688,0.2698,0.2703,0.2707,0.2715,0.272,0.2725,0.273,0.2739,0.2743,0.2752,0.2759,0.2772,0.2778,0.2786,0.2787,0.2791,0.2788,0.2787,0.2787,0.2787,0.2788,0.2792,0.2792,0.2792,0.2792,0,0.269,0.2693,0.27,0.2709,0.2715,0.2722,0.2729,0.2732,0.2739,0.2744,0.2753,0.2758,0.2769,0.2778,0.2786,0.2791,0.2793,0.2793,0.2795,0.2794,0.2792,0.2794,0.2781,0.2793,0.2793,0.2793,0.2793,0.2793,0.2696,0.2701,0.2709,0.2717,0.2723,0.273,0.2736,0.2741,0.2748,0.2757,0.276,0.2769,0.2777,0.2788,0.2793,0.28,0.28,0.2802,0.2803,0.2803,0.2804,0.2791,0.2802,0.2802,0.2802,0.2802,0.2802,0,0.2704,0.271,0.2717,0.2727,0.2734,0.2735,0.2743,0.2748,0.2756,0.2763,0.277,0.278,0.2789,0.2795,0.2804,0.2808,0.2809,0.2811,0.281,0.2812,0.2803,0.2801,0.281,0.281,0.281,0.281,0.281,0.281,0.2709,0.2719,0.2723,0.2735,0.2741,0.275,0.2754,0.276,0.2766,0.2777,0.2785,0.2789,0.2796,0.2805,0.2813,0.2814,0.2818,0.2819,0.2821,0.2813,0.2812,0.2811,0.2809,0.2819,0.2819,0.2828,0.2828,0.2828]},{"header":{"parameterUnit":"m.s-1","parameterCategory":1,"la1":30.2991,"la2":30.254,"lo1":-89.0895,"lo2":-89.0444,"dy":0.0017,"dx":0.0017,"nx":28,"ny":28,"refTime":"2025-05-16T21:00:00:Z","depth":0,"parameterNumber":3,"parameterNumberName":"V-component_of_WINDS"},"data":[0,0,0,0,0,0,0,0,0,0,0,0,0,0,0,0,0,0,0,0,0,0,0,0,0,0,0,0,0,0,0,0,0,0,0,0,0,0,0,0,0,0,0,0,0,0,0,0,0,0,0,0,0,0,0,0,0,0,5.5215,5.5215,0,5.5157,5.5156,5.5155,5.5137,5.5137,5.5137,5.5137,5.507,5.5068,5.5066,0,0,0,0,0,0,0,0,0,0,0,0,0,5.5306,5.5304,5.5216,5.5215,5.5214,5.5157,5.5156,5.5155,5.5137,5.5137,5.5137,5.5138,5.5071,5.5068,5.5066,0,0,0,0,0,0,0,0,0,0,0,0,0,5.5259,5.5304,5.5216,5.5198,5.5196,5.5157,5.5156,5.5155,5.5137,5.5137,5.5137,5.5138,5.5072,5.5069,5.5066,5.5038,0,0,5.5056,5.5055,0,0,0,0,0,0,0,0,5.5261,5.5255,5.5201,5.5199,5.5197,5.5155,5.5163,5.5115,5.5136,5.5159,5.5137,5.5138,5.5097,5.5092,5.508,5.5035,5.5032,5.5056,5.5054,5.5053,5.5052,0,0,0,0,0,0,0,5.5265,5.5258,5.5192,5.5201,5.5198,5.5191,5.5185,5.5154,5.5126,5.5157,5.5155,5.5149,5.5096,5.5083,5.5078,5.5031,5.5056,5.5053,5.5051,5.505,5.496,5.496,0,0,0,0,0,0,5.5272,5.5261,5.5194,5.519,5.5231,5.5189,5.5182,5.5168,5.5127,5.5121,5.5149,5.5148,5.5088,5.5082,5.5076,5.5041,5.5053,5.505,5.5048,5.4961,5.496,5.496,0,0,0,0,0,0,5.5274,5.5266,5.5196,5.5225,5.5216,5.5187,5.5171,5.5166,5.5153,5.5121,5.5115,5.5141,5.5088,5.508,5.5048,5.5039,5.5048,5.5046,5.4962,5.4961,5.496,5.4972,0,0,0,0,0,0,5.5276,5.5267,5.5257,5.5225,5.5214,5.5171,5.517,5.5165,5.5149,5.5148,5.5112,5.5106,5.5088,5.5053,5.5045,5.5035,5.5043,5.4962,5.4961,5.496,5.4972,5.4972,5.4971,0,0,0,0,0,5.528,5.5261,5.5257,5.5249,5.5202,5.5171,5.5164,5.5146,5.5148,5.5137,5.5117,5.5107,5.5041,5.505,5.5041,5.5029,5.4963,5.4962,5.496,5.4972,5.4972,5.4971,0,0,0,0,0,0,5.529,5.5256,5.5251,5.5222,5.52,5.5168,5.5154,5.5146,5.512,5.512,5.5097,5.5089,5.5058,5.504,5.5051,5.5001,5.5001,5.4998,5.5014,5.5013,5.5012,5.5017,5.5041,0,0,0,0,0,5.5289,5.5269,5.524,5.5217,5.5206,5.5182,5.5168,5.5156,5.5131,5.512,5.5097,5.5071,5.5045,5.5028,5.5001,5.497,5.4961,5.4957,5.4957,5.4957,5.4954,5.4936,5.4934,5.4956,5.4956,5.4956,0,0,5.5287,5.5266,5.5254,5.5218,5.52,5.5177,5.5174,5.515,5.5133,5.5116,5.5085,5.5067,5.5037,5.5005,5.499,5.4989,5.4946,5.4955,5.4955,5.4952,5.4935,5.4933,5.4931,5.4955,5.4955,5.4955,0,0,5.5271,5.5253,5.5233,5.5215,5.5188,5.5172,5.5168,5.5137,5.5125,5.5095,5.5082,5.506,5.5015,5.4994,5.4978,5.4956,5.4946,5.4948,5.4945,5.4928,5.4926,5.4924,5.4917,5.4914,5.4945,5.4945,5.4945,0,5.527,5.5239,5.5223,5.52,5.5185,5.5172,5.515,5.5132,5.5097,5.5086,5.5086,5.5031,5.5009,5.4973,5.4968,5.4955,5.4948,5.4951,5.4928,5.4926,5.4924,5.4917,5.4914,5.4946,5.4946,5.4946,5.4946,0,5.5239,5.5218,5.5204,5.5174,5.5156,5.5134,5.5114,5.5098,5.5088,5.5072,5.5041,5.5015,5.4984,5.4974,5.4963,5.4936,5.4937,5.4933,5.4933,5.4923,5.4916,5.4913,5.4947,5.4946,5.4946,5.4946,0,0,5.5227,5.519,5.5185,5.5172,5.5142,5.5123,5.51,5.5073,5.506,5.5036,5.5016,5.4979,5.4976,5.4957,5.4943,5.4929,5.4914,5.4926,5.4925,5.4925,5.4883,5.4886,5.4883,5.4908,5.4907,5.4906,5.4886,0,5.5207,5.5169,5.5155,5.5122,5.5101,5.5089,5.5069,5.5048,5.5033,5.5011,5.4993,5.4968,5.4966,5.4954,5.4939,5.4919,5.4905,5.492,5.4887,5.4886,5.4895,5.4879,5.4882,5.4864,5.4883,5.4882,5.4882,0,5.5179,5.5158,5.5125,5.5099,5.5089,5.5072,5.5046,5.5027,5.5002,5.4991,5.4972,5.496,5.4934,5.4937,5.4901,5.4912,5.4897,5.4885,5.4884,5.488,5.4883,5.4875,5.4858,5.4855,5.4877,5.4877,5.4878,0,5.5174,5.5137,5.5113,5.5101,5.507,5.5058,5.5044,5.502,5.5005,5.4982,5.4971,5.4944,5.4929,5.4908,5.4888,5.4892,5.4854,5.4855,5.4844,5.4844,5.4836,5.4836,5.4816,5.4827,5.4827,5.4827,5.4827,0,5.5153,5.5133,5.511,5.5095,5.5072,5.5055,5.5032,5.5017,5.4996,5.4977,5.4964,5.4945,5.4921,5.4899,5.4883,5.4856,5.4849,5.4839,5.4835,5.484,5.4841,5.483,5.4831,5.4826,5.4826,5.4826,5.4826,0,5.5143,5.5127,5.51,5.5074,5.5066,5.5051,5.5027,5.5011,5.4997,5.4972,5.4965,5.4941,5.4915,5.4894,5.4858,5.4848,5.4819,5.4814,5.4828,5.4826,5.4816,5.4818,5.4788,5.4783,5.4797,5.4797,5.4797,0,5.5131,5.5116,5.5089,5.5076,5.5064,5.5043,5.5028,5.5011,5.4996,5.4968,5.4955,5.4928,5.4906,5.4865,5.4842,5.4816,5.481,5.4802,5.4806,5.4812,5.481,5.4811,5.481,5.4801,5.4801,5.4801,5.4801,0,5.5111,5.5104,5.5085,5.5063,5.5047,5.5028,5.5008,5.4998,5.4977,5.4961,5.4936,5.4919,5.4885,5.4858,5.4829,5.4813,5.4803,5.48,5.4796,5.4801,5.481,5.4805,5.4827,5.48,5.48,5.48,5.48,5.48,5.5099,5.5086,5.5066,5.5044,5.5029,5.5012,5.4996,5.4981,5.496,5.4933,5.4923,5.4897,5.4873,5.4834,5.4817,5.4796,5.4795,5.4789,5.4787,5.4786,5.4787,5.4814,5.479,5.479,5.479,5.479,5.479,0,5.5079,5.5066,5.5047,5.5022,5.5006,5.5001,5.498,5.4965,5.4944,5.4923,5.4903,5.4874,5.4849,5.4826,5.4799,5.4786,5.4781,5.4779,5.478,5.4776,5.4789,5.4795,5.4784,5.4784,5.4784,5.4784,5.4784,5.4784,5.5067,5.5044,5.5035,5.5004,5.4991,5.4967,5.4956,5.4939,5.4923,5.4893,5.4873,5.4859,5.4837,5.4809,5.4786,5.4779,5.477,5.477,5.4762,5.4774,5.4775,5.4776,5.4782,5.4768,5.4768,5.4751,5.4751,5.4751]}]]